Location: Bon Acre
(42.6442°N, 73.5758°W)
Time: 09:04:38
(UTC+00:00)

ARIANE 6 FM1 Upper Stage - Pass Details

Date: 18 February 2026
Orbit: 523 x 607 km, 62.0° (Epoch: 7 March)

Event Time Altitude Azimuth Distance (km) Brightness Sun altitude
Rises 00:03:59 0° 321° (NW) 2,657 6.7 -18.1°
Reaches altitude 10° 00:06:10 10° 321° (NW) 1,767 5.7 -18.5°
Maximum altitude 00:10:08 86° 236° (SW) 533 2.5 -19.2°
Enters shadow 00:11:33 39° 146° (SSE) 806 3.1 -19.5°
